Regional Weather Roundup
Issued by NWS

Home | Current Version | Previous Version | Graphics & Text | Print | Product List | Glossary Off
Versions: 1 2 3 4 5 6 7 8 9 10 11 12 13 14 15 16 17 18 19 20 21 22 23 24 25 26 27 28 29 30 31 32 33 34 35 36 37 38 39 40 41 42 43 44 45 46 47 48 49 50

000
ASUS43 KDMX 271007
RWRIA

WEATHER ROUNDUP FOR IOWA
NATIONAL WEATHER SERVICE DES MOINES IA
400 AM CST TUE JAN 27 2015

NOTE: "FAIR" INDICATES FEW OR NO CLOUDS BELOW 12,000 FEET WITH NO
SIGNIFICANT WEATHER AND/OR OBSTRUCTIONS TO VISIBILITY.

* - THESE STATIONS ARE NOT NWS STATIONS...THUS NOT UNDER NWS
QUALITY CONTROL.  THEY ALSO DO NOT REPORT WEATHER SUCH
AS PRECIPITATION OR FOG.

IAZ001>003-012>014-020>022-031>034-043>046-271100-
   NORTHWEST IOWA

CITY           SKY/WX    TMP DP  RH WIND       PRES   REMARKS
CARROLL *      CLEAR     32  30  93 N10       30.06S WCI  24
CHEROKEE *     CLEAR     28  28 100 CALM      30.06F
DENISON *      CLEAR     28  28 100 CALM      30.05S
LE MARS *      CLEAR     28  28 100 CALM      30.06F
ORANGE CITY *  CLEAR     36  30  80 CALM      30.05F
SHELDON *      CLEAR     28  28 100 NE6       30.04F WCI  22
SIOUX CITY     CLEAR     28  27  96 CALM      30.07S
SPENCER        CLOUDY    33  30  88 N7        30.07R WCI  27
STORM LAKE *   PTCLDY    30  28  93 N8        30.06S WCI  23
$$

IAZ055>058-069>071-079>083-090>094-271100-
   SOUTHWEST IOWA

CITY           SKY/WX    TMP DP  RH WIND       PRES   REMARKS
ATLANTIC *     CLEAR     28  28 100 CALM      30.07S
AUDUBON *      CLEAR     30  27  86 CALM      30.07S
CLARINDA *     CLEAR     27  27 100 CALM      30.09S
COUNCIL BLFS * CLEAR     34  34 100 NE6       30.06S WCI  29
CRESTON *      CLEAR     30  30 100 NW3       30.06R
HARLAN  *      CLEAR     27  27 100 CALM      30.10F
LAMONI         CLEAR     32  29  88 N6        30.05R WCI  26
RED OAK *      CLEAR     25  25 100 CALM      30.08S
SHENANDOAH *   CLEAR     30  30 100 CALM      30.09S
$$

IAZ047>049-059>061-072>074-084-271100-
   CENTRAL IOWA

CITY           SKY/WX    TMP DP  RH WIND       PRES   REMARKS
AMES           CLEAR     32  29  88 N9        30.05S WCI  24
ANKENY *       CLEAR     32  30  93 NW5       30.06R WCI  27
CHARITON *     PTCLDY    34  32  93 NW7       30.05R WCI  28
DES MOINES     CLEAR     33  29  85 NW7       30.06S WCI  27
GRINNELL*      CLEAR     30  28  93 NW6       30.04R WCI  24
KNOXVILLE *    CLEAR     34  28  80 NW10      30.03S WCI  26
MARSHALLTOWN   CLEAR     29  27  92 NW9       30.03R WCI  20
PELLA *        CLEAR     32  30  93 NW7       30.06S WCI  26
PERRY *          N/A     30  30 100 NW8       30.06S WCI  23
$$

IAZ004>006-015-016-023>025-035-036-271100-
   NORTH CENTRAL IOWA

CITY           SKY/WX    TMP DP  RH WIND       PRES   REMARKS
ALGONA *       CLEAR     32  32 100 NW7       30.07R WCI  26
CLARION *      CLEAR     32  32 100 NW8       30.06R WCI  25
ESTHERVILLE    CLEAR     30  28  92 NW7       30.06R WCI  23
FORT DODGE *   CLEAR     30  27  86 CALM      30.07R
MASON CITY     CLEAR     28  26  92 NW7       30.05R WCI  21
FOREST CITY *  CLEAR     30  28  93 NW3       30.04S
IOWA FALLS *     N/A     32  30  93 NW7       30.05R WCI  26
$$

IAZ007>011-017>019-026>030-037>042-050>054-066-271100-
   NORTHEAST IOWA

CITY           SKY/WX    TMP DP  RH WIND       PRES   REMARKS
CEDAR RAPIDS   CLEAR     28  27  96 NW8       30.01R WCI  20
CHARLES CITY * CLOUDY    34  34 100 N7        30.04R WCI  28
CLINTON *      CLOUDY    28  27  93 N7        30.03R WCI  21
DECORAH *      CLOUDY    32  30  93 VRB5      30.02R WCI  27
DUBUQUE        CLOUDY    31  27  85 N15       29.99R WCI  20
MONTICELLO *   CLOUDY    34  34 100 NW8       30.01R WCI  27
OELWEIN *      CLOUDY    34  32  93 NW10      30.02R WCI  26
WATERLOO       CLOUDY    31  30  96 NW6       30.03R WCI  25
$$

IAZ064-065-067-068-078-271100-
   EAST CENTRAL IOWA

CITY           SKY/WX    TMP DP  RH WIND       PRES   REMARKS
DAVENPORT      CLOUDY    34  29  82 N9        30.00R WCI  27
IOWA CITY      CLOUDY    34  31  88 NW6       30.04R WCI  29
MT. PLEASANT * CLOUDY    34  30  86 NW6       30.02R WCI  29
MUSCATINE *    MOCLDY    34  32  93 NW8       30.03R WCI  27
QUAD CITIES    CLOUDY    35  29  78 N7        29.99R WCI  29
$$

IAZ062-063-075>077-085>089-095>099-271100-
   SOUTHEAST IOWA

CITY           SKY/WX    TMP DP  RH WIND       PRES   REMARKS
BURLINGTON     CLOUDY    35  32  88 N7        30.00R WCI  29
FAIRFIELD *    CLEAR     32  30  93 NW9       30.03R WCI  24
FORT MADISON * CLOUDY    37  34  87 NW7       30.01S WCI  32
KEOKUK *       CLOUDY    36  32  87 N8        30.01R WCI  29
OSKALOOSA *      N/A     32  28  86 NW9       30.04R WCI  24
CENTERVILLE *  CLEAR     34  32  93 NW10      30.05R WCI  26
OTTUMWA        CLEAR     33  29  85 NW12      30.03R WCI  24
WASHINGTON *   CLOUDY    34  34 100 NW8       30.03R WCI  27
$$

ABBREVIATIONS USED IN REMARKS
   TC - TEMPERATURES IN CELSIUS
  WCI - WIND CHILL INDEX
   HX - HEAT INDEX
  VSB - VISIBILITY
$$



USA.gov is the U.S. government's official web portal to all federal, state and local government web resources and services.